Location: Chervonnoye
(48.6000°N, 34.4000°E)
Time: 01:50:31
(UTC+00:00)

X-37B - Pass Details

Date: 01 October 2021
Orbit: 385 x 389 km, 45.0° (Epoch: 13 October)

Event Time Altitude Azimuth Distance (km) Brightness Sun altitude
Exits shadow 01:11:28 17° 116° (ESE) 1,090 3.2 -25.0°
Drops below altitude 10° 01:12:19 10° 110° (ESE) 1,413 4.0 -24.9°
Sets 01:14:27 0° 103° (ESE) 2,268 5.2 -24.5°
